Voltar ao catálogo

FENGYUN 1C DEB

AtivoLEO
NORAD 32456·DEBRIS·🇨🇳 China

Lançado May 10, 1999 de Taiyuan Satellite Launch Center

Loading…

Próximas Passagens (próximas 24 horas)

TLE

ObsoletoSource: Space-Track

Época: Sep 4, 2026, 21:15 UTC

1 32456U 99025DBU 26247.88596344  .00000686  00000-0  98080-3 0  9991
2 32456 103.6635 122.8402 0377312  41.7610 321.1657 13.36153930641704

Acompanhe FENGYUN 1C DEB em tempo real com AllMySat

Download on the App Store